星链-37187(STARLINK-37187)

导读 | 豆包AI

STARLINK-37187(NORAD编号68399)是美国太空探索技术公司(SpaceX)星链(Starlink)项目的低轨互联网卫星,于2024年12月8日发射,截至2026年4月已在轨飞行超480天。该卫星采用Starlink V1.0平台,运行于倾角43.001°的近地轨道,近地点约355公里、远地点约357公里,轨道周期约91.66分钟,属于星链全球卫星互联网星座的组成部分,旨在为全球提供高速低延迟宽带互联网服务,缩小数字鸿沟。目前该卫星状态为在轨运行。

基本信息
目录编号:
68399
目录名称:
STARLINK-37187
国际标识:
2026-063V
轨道中心:
EARTH
卫星名称:
星链-37187
卫星全名:
星链-37187(STARLINK-37187)
卫星状态:
在轨 (已飞行19 天)
发射日期:
2026-03-26 UTC
国别 :
美国 (US)
星等 :
--
轨道信息
数据来源 国际轨道数据
星历时间: 2026-04-14T19:03:46+0800
6小时前
查看轨道信息
半长轴: 6706.073km
偏心率: 0.0001126
轨道倾角: 97.283°
近地点辐角 71.364°
升交点赤经 246.021°
平近点角 288.775°
近地点: 327.18km
远地点: 328.692km
周期: 91.088分钟
每日圈数: 15.808856
详细信息
固有亮度:
5
最大亮度:
2.5
卫星平台:
Starlink V1.0
覆盖范围:
全球
运营商:
太空探索技术公司
运营商所在国:
美国
制造商(研发单位):
太空探索技术公司
制造商所在国:
美国
使用方式:
暂无
卫星简介
Starlink 计划是 SpaceX 推出的全球卫星互联网项目,通过发射低轨道卫星,为全球尤其是偏远地区提供高速、低延迟的互联网服务。自 2019 年起,Starlink 已部署数千颗卫星,旨在缩小全球数字鸿沟,推动互联网普及。该项目还为军事、航空等行业提供通信支持,带来广泛经济效益。
2D轨道图
3D轨道图
轨道高度分析图
轨道倾角分析图
轨道综合分析图
查看轨道综合分析图